Погода в Могилеве

Погода в Могилеве : погода сейчас, прогноз погоды и архив. Всё, что Вы хотите узнать о погоде в Могилеве!

Поиск расширенной информации на нашем сайте:

Полезная информация:

Другие новости

Новости СМИ2

Главная страница сайта

Новости сайта

03.07.2017

Напоминаем, что на нашем специализированном сайте Метеоцентр.Азия вы можете получить высокодетализированные автоматические прогнозы погоды по пунктам России, СНГ и мира в авиационном формате (включающие направление и скорость ветра, видимость, явления погоды, количество и форму облачности, нижнюю и верхнюю границу облачности).

Рекомендуем:

Погода в Могилеве - сегодня

Время (UTC), дата Ветер
(°,м/с) 
Видим.   Явления Облачность Т
(°С)
Тd
(°С)
f(%) Тe
(°С)
Pmin
(гПа)
dP
(гПа)
Po
(мм)
O2
(г/м3)
Тmin Tmax R s Состояние
почвы
21 18.05.19 070 (В) 10 км    6/0 верхняя 
[Ci sp]
+14.3 +9.7 74 +17  1016.3  -0.2  745  284           
00 19.05.19 050 (СВ) 10 км    4/0 верхняя 
[Ci sp]
+12.2 +9 81 +13  1016.9  0.5  745  286           
03 19.05.19 тихо ()   10 км    3/0 верхняя 
[Ci sp]
+9.8 +7.6 86 +10  1017.4  0.2  746  289           
06 19.05.19 140 (ЮВ) 12000 м    6/0 верхняя 
[Ci sp]
+18.5 +13 70 +25  1017.1  0.4  746  279  +9.6         
09 19.05.19 120 (ЮВ) 14000 м    9/0 верхняя 
[Ci sp]
+22.4 +8.5 41 +22  1017.2  0.5  746  276           
12 19.05.19 130 (ЮВ) 15000 м    9/0 верхняя 
[Ci sp]
+24 +9.3 39 +24  1016.8  -0.4  746  275           
15 19.05.19 110 (В) 14000 м    9/0 верхняя 
[Ci sp]
+24.6 +10.2 40 +26  1016.2  -0.5  746  274           
18 19.05.19 150 (ЮВ) 12000 м    8/0 верхняя 
[Ci sp]
+19.1 +9.7 54 +21  1016.2  -0.5  745  279    +25       
21 19.05.19 120 (ЮВ) 10 км    8/0 верхняя 
[Ci sp]
+15.5 +11.2 76 +19  1017.1  0.7  746  282           
00 20.05.19 140 (ЮВ) 10 км    6/0 верхняя 
[Ci sp]
+11.8 +8.5 80 +13  1017.2  -0.2  746  286           
03 20.05.19 120 (ЮВ) 10 км    3/0 верхняя 
[Ci sp]
+12.3 +9.3 82 +12  1018.5  1.4  747  286           
06 20.05.19 140 (ЮВ) 10 км    3/0 верхняя 
[Ci sp]
+18.8 +9.3 54 +19  1018.7  0.6  747  280  +11.2         
09 20.05.19 120 (ЮВ) 10 км    1/0 верхняя 
[Ci sp]
+23.2 +8.9 40 +23  1018.2  -0.1  747  276           
12 20.05.19 110 (В) 6{11}  15000 м    3/3 1000 м 
[Cu hum]
+24.5 +6.8 32 +25  1017.2  -0.9  746  275           
15 20.05.19 140 (ЮВ) 5{10}  15000 м    3/0 верхняя 
[Ci sp]
+24.3 +7.4 34 +24  1016.1  -1.2  745  275           
18 20.05.19 120 (ЮВ) 15000 м    4/0 верхняя 
[Ci sp]
+19.7 +10 53 +22  1015.6  -0.8  745  278    +25       
21 20.05.19 130 (ЮВ) 14000 м    6/0 верхняя 
[Ci sp]
+17 +8.2 56 +17  1016.3  0.5  745  281           
00 21.05.19 110 (В) 13000 м    6/0 верхняя 
[Ci sp]
+13.5 +6.8 64 +14  1016.5  745  285           
03 21.05.19 120 (ЮВ) 12000 м    4/0 верхняя 
[Ci sp]
+13 +6.5 65 +13  1016.2  -0.4  745  285           
06 21.05.19 140 (ЮВ) 12000 м    4/0 верхняя 
[Ci sp]
+19 +7.7 48 +19  1015.6  -0.2  745  279  +12.9         
09 21.05.19 130 (ЮВ) 10 км    4/0 верхняя 
[Ci sp]
+23.6 +9.2 40 +24  1014.1  -1  744  274           
12 21.05.19 150 (ЮВ) 10 км    8/0 верхняя 
[Cu hum|Ci sp]
+24.2 +6.4 32 +24  1013.3  -0.8  743  274           
15 21.05.19 150 (ЮВ) 10 км    9/0 средняя, верхняя 
[Ac trans|Ci sp]
+23.1 +10.4 45 +25  1012  -1.3  742  274           
18 21.05.19 170 (Ю) 10 км    9/0 средняя, верхняя 
[Ac trans|Ci sp]
+19.6 +8.8 50 +20  1011.9  -0.4  742  277    +25.2       
21 21.05.19 120 (ЮВ) 10 км    9/0 средняя, верхняя 
[Ac trans|Ci sp]
+16.6 +11.3 71 +20  1012.2  0.1  742  280           
Время (UTC), дата Ветер
(°,м/с) 
Видим.   Явления Облачность Т
(°С)
Тd
(°С)
f(%) Тe
(°С)
Pmin
(гПа)
dP
(гПа)
Po
(мм)
O2
(г/м3)
Тmin Tmax R s Состояние
почвы

Для получения пояснительной информации подведите курсор к названию столбца.

ПОГОДА в Могилеве - архив

Всё, что Вы хотите узнать о погоде в Могилеве - удобно и подробно!

Выберите нужную дату (начиная с 1 января 2018* года) и нажмите кнопку "Найти".
Будут отображены архивные сводки погоды по пункту Могилев, начиная с указанной даты.


Отображать данные в формате CSV (для использования в таблицах Excel)


Внимание! Наш архив погоды предназначен исключительно для личного некоммерческого использования в познавательных целях. Если Вам необходимы официальные справки о состоянии погоды (для производственных, юридических, коммерческих и т.п. целей), обращайтесь в органы Росгидромета.

*Примечание: данная дата относится к архиву по метеостанциям СССР (Россия, СНГ, Балтия).
Архив по метеостанциям Зарубежной Европы и Азии (кроме Китая) хранится 10 дней, по другим регионам земного шара (Китай, Африка, Америка, Австралия, Океания) - 1 день.

Могилев - район местоположения метеостанции


Название, широта, долгота, высота метеостанции:
Могилев 53.9°ш. 30.1°д. 192 м над ур. моря [Беларусь]

Дополнительная информация

В oтличие oт бoльшинства пoгoдных сайтoв мы публикуем пoдрoбную метеoинфoрмацию в детальнoм прoфессиoнальнoм фoрмате.

Характеристики температуры и влажнoсти вoздуха измеряются на высoте 2 м в тени вдали oт зданий и деревьев.
Скoрoсть ветра измеряется на высoте 10 м (на урoвне рoста челoвека скoрoсть ветра ниже в 1.5-2 раза). Если метеoстанция нахoдится в гoрoде или в лесу, тo скoрoсть ветра занижена на 2-4 м/с пo сравнению с oткрытым местoм. Скoрoсть ветра над акватoриями крупных рек и oзёр, а также на вершинах хoлмoв на 2-5 м/с выше, чем в oбычных услoвиях.
Атмoсфернoе давление в разных тoчках местнoсти мoжет значительнo oтличаться oт давления на метеoстанции, в зависимoсти oт услoвий рельефа (при пoдъёме на 10 м давление пoнижается примернo на 1 мм рт.ст.).